Time,TemperatureF,DewpointF,PressureIn,WindDirection,WindDirectionDegrees,WindSpeedMPH,WindSpeedGustMPH,Humidity,HourlyPrecipIn,Conditions,Clouds,dailyrainin,SolarRadiationWatts/m^2,SoftwareType,DateUTC
2013-03-22 00:02:00,39.0,34.0,30.34,West,273,8.0,14.0,81,-99.99,,,0.01,0.000000,,2013-03-22 07:02:00,
2013-03-22 00:11:00,39.0,34.0,30.34,West,273,8.0,14.0,81,-99.99,,,0.01,0.000000,,2013-03-22 07:11:00,
2013-03-22 00:42:00,39.0,35.0,30.33,West,267,7.0,21.0,85,-99.99,,,0.01,0.000000,,2013-03-22 07:42:00,
2013-03-22 00:52:00,39.0,35.0,30.33,West,267,7.0,21.0,85,-99.99,,,0.01,0.000000,,2013-03-22 07:52:00,
2013-03-22 01:02:00,39.0,35.0,30.33,West,267,7.0,21.0,85,-99.99,,,0.01,0.000000,,2013-03-22 08:02:00,
2013-03-22 01:12:00,39.0,35.0,30.33,West,267,7.0,21.0,85,-99.99,,,0.01,0.000000,,2013-03-22 08:12:00,
2013-03-22 01:42:00,38.0,35.0,30.33,West,265,9.0,19.0,87,-99.99,,,0.01,0.000000,,2013-03-22 08:42:00,
2013-03-22 01:52:00,38.0,35.0,30.33,West,265,9.0,19.0,87,-99.99,,,0.01,0.000000,,2013-03-22 08:52:00,
2013-03-22 02:02:00,38.0,35.0,30.33,West,265,9.0,19.0,87,-99.99,,,0.01,0.000000,,2013-03-22 09:02:00,
2013-03-22 02:11:00,38.0,35.0,30.33,West,265,9.0,19.0,87,-99.99,,,0.01,0.000000,,2013-03-22 09:11:00,
2013-03-22 02:42:00,38.0,35.0,30.34,West,265,8.0,15.0,90,-99.99,,,0.01,0.000000,,2013-03-22 09:42:00,
2013-03-22 02:53:00,38.0,35.0,30.34,West,265,8.0,15.0,90,-99.99,,,0.01,0.000000,,2013-03-22 09:53:00,
2013-03-22 03:03:00,38.0,35.0,30.34,West,265,8.0,15.0,90,-99.99,,,0.01,0.000000,,2013-03-22 10:03:00,
2013-03-22 03:12:00,38.0,35.0,30.34,West,265,8.0,15.0,90,-99.99,,,0.01,0.000000,,2013-03-22 10:12:00,
2013-03-22 03:42:00,38.0,36.0,30.34,WSW,257,8.0,16.0,91,-99.99,,,0.01,0.000000,,2013-03-22 10:42:00,
2013-03-22 03:52:00,38.0,36.0,30.34,WSW,257,8.0,16.0,91,-99.99,,,0.01,0.000000,,2013-03-22 10:52:00,
2013-03-22 04:02:00,38.0,36.0,30.34,WSW,257,8.0,16.0,91,-99.99,,,0.01,0.000000,,2013-03-22 11:02:00,
2013-03-22 04:12:00,38.0,36.0,30.34,WSW,257,8.0,16.0,91,-99.99,,,0.01,0.000000,,2013-03-22 11:12:00,
2013-03-22 04:42:00,38.0,34.0,30.34,West,263,8.0,17.0,87,-99.99,,,0.01,0.000000,,2013-03-22 11:42:00,
2013-03-22 04:52:00,38.0,34.0,30.34,West,263,8.0,17.0,87,-99.99,,,0.01,0.000000,,2013-03-22 11:52:00,
2013-03-22 05:02:00,38.0,34.0,30.34,West,263,8.0,17.0,87,-99.99,,,0.01,0.000000,,2013-03-22 12:02:00,
2013-03-22 05:12:00,38.0,34.0,30.34,West,263,8.0,17.0,87,-99.99,,,0.01,0.000000,,2013-03-22 12:12:00,
2013-03-22 05:42:00,38.0,35.0,30.34,West,281,6.0,13.0,90,-99.99,,,0.01,0.000000,,2013-03-22 12:42:00,
2013-03-22 05:52:00,38.0,35.0,30.34,West,281,6.0,13.0,90,-99.99,,,0.01,0.000000,,2013-03-22 12:52:00,
2013-03-22 06:02:00,38.0,35.0,30.34,West,281,6.0,13.0,90,-99.99,,,0.01,0.000000,,2013-03-22 13:02:00,
2013-03-22 06:11:00,38.0,35.0,30.34,West,281,6.0,13.0,90,-99.99,,,0.01,0.000000,,2013-03-22 13:11:00,
2013-03-22 06:42:00,35.0,34.0,30.35,West,274,7.0,13.0,93,-99.99,,,0.01,0.000000,,2013-03-22 13:42:00,
2013-03-22 06:52:00,35.0,34.0,30.35,West,274,7.0,13.0,93,-99.99,,,0.01,0.000000,,2013-03-22 13:52:00,
2013-03-22 07:02:00,35.0,34.0,30.35,West,274,7.0,13.0,93,-99.99,,,0.01,0.000000,,2013-03-22 14:02:00,
2013-03-22 07:11:00,35.0,34.0,30.35,West,274,7.0,13.0,93,-99.99,,,0.01,0.000000,,2013-03-22 14:11:00,
2013-03-22 07:42:00,37.0,35.0,30.36,West,272,6.0,12.0,91,-99.99,,,0.01,3.490000,,2013-03-22 14:42:00,
2013-03-22 07:52:00,37.0,35.0,30.36,West,272,6.0,12.0,91,-99.99,,,0.01,3.490000,,2013-03-22 14:52:00,
2013-03-22 08:02:00,37.0,35.0,30.36,West,272,6.0,12.0,91,-99.99,,,0.01,3.490000,,2013-03-22 15:02:00,
2013-03-22 08:11:00,37.0,35.0,30.36,West,272,6.0,12.0,91,-99.99,,,0.01,3.490000,,2013-03-22 15:11:00,
2013-03-22 08:42:00,37.0,35.0,30.36,West,278,7.0,13.0,91,-99.99,,,0.01,29.750000,,2013-03-22 15:42:00,
2013-03-22 08:53:00,37.0,35.0,30.36,West,278,7.0,13.0,91,-99.99,,,0.01,29.750000,,2013-03-22 15:53:00,
2013-03-22 09:02:00,37.0,35.0,30.36,West,278,7.0,13.0,91,-99.99,,,0.01,29.750000,,2013-03-22 16:02:00,
2013-03-22 09:13:00,37.0,35.0,30.36,West,278,7.0,13.0,91,-99.99,,,0.01,29.750000,,2013-03-22 16:13:00,
2013-03-22 09:42:00,38.0,35.0,30.38,West,262,6.0,11.0,88,-99.99,,,0.01,34.980000,,2013-03-22 16:42:00,
2013-03-22 09:52:00,38.0,35.0,30.38,West,262,6.0,11.0,88,-99.99,,,0.01,34.980000,,2013-03-22 16:52:00,
2013-03-22 10:02:00,38.0,35.0,30.38,West,262,6.0,11.0,88,-99.99,,,0.01,34.980000,,2013-03-22 17:02:00,
2013-03-22 10:12:00,38.0,35.0,30.38,West,262,6.0,11.0,88,-99.99,,,0.01,34.980000,,2013-03-22 17:12:00,
2013-03-22 10:42:00,39.0,35.0,30.39,West,269,8.0,17.0,87,-99.99,,,0.01,317.510010,,2013-03-22 17:42:00,
2013-03-22 10:53:00,39.0,35.0,30.39,West,269,8.0,17.0,87,-99.99,,,0.01,317.510010,,2013-03-22 17:53:00,
2013-03-22 11:02:00,39.0,35.0,30.39,West,269,8.0,17.0,87,-99.99,,,0.01,317.510010,,2013-03-22 18:02:00,
2013-03-22 11:12:00,39.0,35.0,30.39,West,269,8.0,17.0,87,-99.99,,,0.01,317.510010,,2013-03-22 18:12:00,
2013-03-22 11:42:00,39.0,35.0,30.39,West,267,7.0,13.0,83,-99.99,,,0.01,268.929993,,2013-03-22 18:42:00,
2013-03-22 11:52:00,39.0,35.0,30.39,West,267,7.0,13.0,83,-99.99,,,0.01,268.929993,,2013-03-22 18:52:00,
2013-03-22 12:02:00,39.0,35.0,30.39,West,267,7.0,13.0,83,-99.99,,,0.01,268.929993,,2013-03-22 19:02:00,
2013-03-22 12:12:00,39.0,35.0,30.39,West,267,7.0,13.0,83,-99.99,,,0.01,268.929993,,2013-03-22 19:12:00,
2013-03-22 12:42:00,42.0,33.0,30.39,West,271,7.0,13.0,71,-99.99,,,0.01,222.910004,,2013-03-22 19:42:00,
2013-03-22 12:52:00,42.0,33.0,30.39,West,271,7.0,13.0,71,-99.99,,,0.01,222.910004,,2013-03-22 19:52:00,
2013-03-22 13:02:00,42.0,33.0,30.39,West,271,7.0,13.0,71,-99.99,,,0.01,222.910004,,2013-03-22 20:02:00,
2013-03-22 13:12:00,42.0,33.0,30.39,West,271,7.0,13.0,71,-99.99,,,0.01,222.910004,,2013-03-22 20:12:00,
2013-03-22 13:42:00,42.0,35.0,30.39,West,261,9.0,16.0,74,-99.99,,,0.01,738.109985,,2013-03-22 20:42:00,
2013-03-22 13:52:00,42.0,35.0,30.39,West,261,9.0,16.0,74,-99.99,,,0.01,738.109985,,2013-03-22 20:52:00,
2013-03-22 14:02:00,42.0,35.0,30.39,West,261,9.0,16.0,74,-99.99,,,0.01,738.109985,,2013-03-22 21:02:00,
2013-03-22 14:11:00,42.0,35.0,30.39,West,261,9.0,16.0,74,-99.99,,,0.01,738.109985,,2013-03-22 21:11:00,
2013-03-22 14:42:00,44.0,32.0,30.38,West,265,8.0,15.0,62,-99.99,,,0.01,425.600006,,2013-03-22 21:42:00,
2013-03-22 14:53:00,44.0,32.0,30.38,West,265,8.0,15.0,62,-99.99,,,0.01,425.600006,,2013-03-22 21:53:00,
2013-03-22 15:02:00,44.0,32.0,30.38,West,265,8.0,15.0,62,-99.99,,,0.01,425.600006,,2013-03-22 22:02:00,
2013-03-22 15:12:00,44.0,32.0,30.38,West,265,8.0,15.0,62,-99.99,,,0.01,425.600006,,2013-03-22 22:12:00,
2013-03-22 15:42:00,41.0,34.0,30.39,West,268,6.0,14.0,75,-99.99,,,0.01,56.720001,,2013-03-22 22:42:00,
2013-03-22 15:53:00,41.0,34.0,30.39,West,268,6.0,14.0,75,-99.99,,,0.01,56.720001,,2013-03-22 22:53:00,
2013-03-22 16:02:00,41.0,34.0,30.39,West,268,6.0,14.0,75,-99.99,,,0.01,56.720001,,2013-03-22 23:02:00,
2013-03-22 16:12:00,41.0,34.0,30.39,West,268,6.0,14.0,75,-99.99,,,0.01,56.720001,,2013-03-22 23:12:00,
2013-03-22 16:42:00,37.0,35.0,30.38,South,177,4.0,10.0,91,-99.99,,,0.01,108.080002,,2013-03-22 23:42:00,
2013-03-22 16:52:00,37.0,35.0,30.38,South,177,4.0,10.0,91,-99.99,,,0.01,108.080002,,2013-03-22 23:52:00,
2013-03-22 17:02:00,37.0,35.0,30.38,South,177,4.0,10.0,91,-99.99,,,0.01,108.080002,,2013-03-23 00:02:00,
2013-03-22 17:12:00,37.0,35.0,30.38,South,177,4.0,10.0,91,-99.99,,,0.01,108.080002,,2013-03-23 00:12:00,
2013-03-22 18:42:00,41.0,37.0,30.39,SW,224,3.0,12.0,86,-99.99,,,0.01,57.060001,,2013-03-23 01:42:00,
2013-03-22 18:52:00,41.0,37.0,30.39,SW,224,3.0,12.0,86,-99.99,,,0.01,57.060001,,2013-03-23 01:52:00,
2013-03-22 19:02:00,41.0,37.0,30.39,SW,224,3.0,12.0,86,-99.99,,,0.01,57.060001,,2013-03-23 02:02:00,
2013-03-22 19:12:00,41.0,37.0,30.39,SW,224,3.0,12.0,86,-99.99,,,0.01,57.060001,,2013-03-23 02:12:00,
2013-03-22 19:42:00,40.0,36.0,30.41,WSW,255,6.0,11.0,86,-99.99,,,0.01,7.210000,,2013-03-23 02:42:00,
2013-03-22 19:52:00,40.0,36.0,30.41,WSW,255,6.0,11.0,86,-99.99,,,0.01,7.210000,,2013-03-23 02:52:00,
2013-03-22 20:02:00,40.0,36.0,-100.00,WSW,255,6.0,11.0,86,-99.99,,,0.01,7.210000,,2013-03-23 03:02:00,
2013-03-22 20:11:00,40.0,36.0,-100.00,WSW,255,6.0,11.0,86,-99.99,,,0.01,7.210000,,2013-03-23 03:11:00,
2013-03-22 20:43:00,39.0,36.0,30.41,SW,217,3.0,6.0,88,-99.99,,,0.01,0.000000,,2013-03-23 03:43:00,
2013-03-22 20:53:00,39.0,36.0,30.41,SW,217,3.0,6.0,88,-99.99,,,0.01,0.000000,,2013-03-23 03:53:00,
2013-03-22 21:02:00,39.0,36.0,30.41,SW,217,3.0,6.0,88,-99.99,,,0.01,0.000000,,2013-03-23 04:02:00,
2013-03-22 21:12:00,39.0,36.0,30.41,SW,217,3.0,6.0,88,-99.99,,,0.01,0.000000,,2013-03-23 04:12:00,
2013-03-22 21:43:00,38.0,35.0,30.43,SSE,165,4.0,7.0,87,-99.99,,,0.01,0.000000,,2013-03-23 04:43:00,
2013-03-22 21:53:00,38.0,35.0,30.43,SSE,165,4.0,7.0,87,-99.99,,,0.01,0.000000,,2013-03-23 04:53:00,
2013-03-22 22:02:00,38.0,35.0,-100.00,SSE,165,4.0,7.0,87,-99.99,,,0.01,0.000000,,2013-03-23 05:02:00,
2013-03-22 22:12:00,38.0,35.0,30.43,SSE,165,4.0,7.0,87,-99.99,,,0.01,0.000000,,2013-03-23 05:12:00,
2013-03-22 22:42:00,37.0,35.0,30.44,NW,323,2.0,4.0,91,-99.99,,,0.01,0.000000,,2013-03-23 05:42:00,
2013-03-22 22:52:00,37.0,35.0,30.44,NW,323,2.0,4.0,91,-99.99,,,0.01,0.000000,,2013-03-23 05:52:00,
2013-03-22 23:02:00,37.0,35.0,30.44,NW,323,2.0,4.0,91,-99.99,,,0.01,0.000000,,2013-03-23 06:02:00,
2013-03-22 23:12:00,37.0,35.0,30.44,NW,323,2.0,4.0,91,-99.99,,,0.01,0.000000,,2013-03-23 06:12:00,
2013-03-22 23:42:00,37.0,34.0,30.44,South,185,2.0,8.0,89,-99.99,,,0.01,0.000000,,2013-03-23 06:42:00,
2013-03-22 23:52:00,37.0,34.0,30.44,South,185,2.0,8.0,89,-99.99,,,0.01,0.000000,,2013-03-23 06:52:00,